Weather History for Wright-Patt AFB, OH

Change the Weather History Date:

Thursday, April 17, 2014

  Actual Average Record
Temperature  
Mean Temperature 52 °F -  
Max Temperature 67 °F 62 °F 82 °F (2004)
Min Temperature 35 °F 41 °F 30 °F (2001)
Degree Days  
Heating Degree Days 14    
Growing Degree Days 2 (Base 50)    
Moisture  
Dew Point 30 °F    
Average Humidity 42    
Maximum Humidity 63    
Minimum Humidity 28    
Precipitation  
Precipitation 0.00 in - - ()
Sea Level Pressure  
Sea Level Pressure 30.31 in    
Wind  
Wind Speed 8 mph (SSE)    
Max Wind Speed 17 mph    
Max Gust Speed 28 mph    
Visibility 10 miles    
Events      
Averages and records for this station are not official NWS values.
T = Trace of Precipitation, MM = Missing Value Source: NWS Daily Summary

Daily Weather History Graph

Daily Weather History Graph

Search for Another Location

Airport:

Trip Planner

Search our weather history database for the weather conditions in past years. The results will help you decide how hot, cold, wet, or windy it might be!

Date:

Astronomy

Apr. 17, 2014 Rise Set
Actual Time 6:55 AM EDT 8:16 PM EDT
Civil Twilight 6:27 AM EDT 8:44 PM EDT
Nautical Twilight 5:53 AM EDT 9:18 PM EDT
Astronomical Twilight 5:18 AM EDT 9:54 PM EDT
Moon 11:01 PM EDT (4/17) 8:26 AM EDT (4/17)
Length of Visible Light 14h 17m
Length of Day
13h 20m
Waning Gibbous, 94% of the Moon is Illuminated
Apr 17
Waning Gibbous
Apr 22
Last Quarter
Apr 29
New
May 6
First Quarter
May 14
Full

Hourly Weather History & Observations

Time (EDT) Temp. Windchill Dew Point Humidity Pressure Visibility Wind Dir Wind Speed Gust Speed Precip Events Conditions
12:58 AM 38.8 °F 34.6 °F 22.8 °F 53% 30.33 in 10.0 mi East 5.8 mph - N/A   Clear
1:58 AM 38.5 °F 34.1 °F 21.6 °F 51% 30.32 in 10.0 mi East 5.8 mph - N/A   Clear
2:58 AM 37.6 °F 34.0 °F 22.1 °F 54% 30.31 in 10.0 mi ENE 4.6 mph - N/A   Clear
3:58 AM 36.3 °F 31.6 °F 23.0 °F 59% 30.28 in 10.0 mi East 5.8 mph - N/A   Clear
4:58 AM 35.8 °F 31.9 °F 22.3 °F 58% 30.31 in 10.0 mi East 4.6 mph - N/A   Clear
5:58 AM 35.2 °F 32.4 °F 22.5 °F 60% 30.32 in 10.0 mi NE 3.5 mph - N/A   Clear
6:58 AM 35.2 °F - 22.5 °F 60% 30.34 in 10.0 mi East 1.2 mph - N/A   Clear
7:58 AM 36.5 °F - 24.1 °F 61% 30.36 in 10.0 mi Variable 2.3 mph - N/A   Clear
8:58 AM 43.7 °F 40.3 °F 26.8 °F 51% 30.37 in 10.0 mi South 5.8 mph - N/A   Clear
9:58 AM 53.2 °F - 29.3 °F 40% 30.36 in 10.0 mi SSW 13.8 mph 20.7 mph N/A   Clear
10:58 AM 56.7 °F - 31.1 °F 38% 30.36 in 10.0 mi SSW 15.0 mph - N/A   Clear
12:58 PM 61.3 °F - 33.8 °F 36% 30.36 in 10.0 mi South 11.5 mph - N/A   Clear
1:58 PM 64.0 °F - 34.5 °F 33% 30.34 in 10.0 mi SSW 9.2 mph 17.3 mph N/A   Clear
2:58 PM 65.8 °F - 32.7 °F 29% 30.33 in 10.0 mi SSW 11.5 mph 27.6 mph N/A   Clear
3:58 PM 66.2 °F - 32.4 °F 28% 30.31 in 10.0 mi South 17.3 mph 19.6 mph N/A   Clear
4:41 PM 66.2 °F - 32.0 °F 28% 30.27 in 10.0 mi South 15.0 mph 21.9 mph N/A   Clear
4:56 PM 68.0 °F - 33.8 °F 28% 30.27 in 10.0 mi South 12.7 mph - N/A   Clear
4:58 PM 67.3 °F - 34.2 °F 29% 30.29 in 10.0 mi South 13.8 mph - N/A   Clear
5:58 PM 66.9 °F - 32.5 °F 28% 30.28 in 10.0 mi SSW 13.8 mph 18.4 mph N/A   Clear
5:59 PM 66.2 °F - 32.0 °F 28% 30.26 in 10.0 mi SW 13.8 mph 18.4 mph N/A   Clear
6:14 PM 66.2 °F - 32.0 °F 28% 30.26 in 10.0 mi South 13.8 mph 19.6 mph N/A   Clear
6:58 PM 65.5 °F - 33.3 °F 30% 30.27 in 10.0 mi SSE 12.7 mph - N/A   Clear
7:58 PM 62.8 °F - 32.7 °F 32% 30.28 in 10.0 mi SSE 9.2 mph - N/A   Clear
8:58 PM 58.8 °F - 34.3 °F 40% 30.31 in 10.0 mi SSE 5.8 mph - N/A   Clear
9:58 PM 55.4 °F - 35.1 °F 46% 30.30 in 10.0 mi NNW 2.3 mph - N/A   Clear
10:58 PM 51.8 °F - 35.1 °F 53% 30.29 in 10.0 mi East 1.2 mph - N/A   Clear
11:58 PM 49.1 °F - 37.0 °F 63% 30.29 in 10.0 mi Calm Calm - N/A   Clear